Weather History for Limon, CO

Change the Weather History Date:

Friday, April 18, 2014

  Actual Average Record
Temperature  
Mean Temperature 50 °F -  
Max Temperature 76 °F - 80 °F (2005)
Min Temperature 23 °F - 14 °F (2013)
Degree Days  
Heating Degree Days 15    
Month to date heating degree days 397  
Cooling Degree Days 0    
Month to date cooling degree days 0  
Moisture  
Dew Point 29 °F    
Average Humidity 57    
Maximum Humidity 100    
Minimum Humidity 14    
Precipitation  
Precipitation 0.00 in - 0.14 in (2009)
Month to date precipitation 0.35  
Year to date precipitation 1.79  
Sea Level Pressure  
Sea Level Pressure 29.92 in    
Wind  
Wind Speed 7 mph (SSE)    
Max Wind Speed 24 mph    
Max Gust Speed 30 mph    
Visibility 10 miles    
Events      
T = Trace of Precipitation, MM = Missing Value Source: NWS Daily Summary

Daily Weather History Graph

Daily Weather History Graph

Search for Another Location

Airport:

Trip Planner

Search our weather history database for the weather conditions in past years. The results will help you decide how hot, cold, wet, or windy it might be!

Date:

Astronomy

Apr. 18, 2014 Rise Set
Actual Time 6:13 AM MDT 7:35 PM MDT
Civil Twilight 5:45 AM MDT 8:03 PM MDT
Nautical Twilight 5:11 AM MDT 8:36 PM MDT
Astronomical Twilight 4:36 AM MDT 9:12 PM MDT
Moon 11:21 PM MDT (4/18) 8:38 AM MDT (4/18)
Length of Visible Light 14h 17m
Length of Day
13h 21m
Waning Gibbous, 86% of the Moon is Illuminated
Apr 18
Waning Gibbous
Apr 22
Last Quarter
Apr 29
New
May 6
First Quarter
May 14
Full

Hourly Weather History & Observations

Time (MDT) Temp. Windchill Dew Point Humidity Pressure Visibility Wind Dir Wind Speed Gust Speed Precip Events Conditions
12:55 AM 33.1 °F 24.9 °F 32.0 °F 96% 30.07 in 10.0 mi SE 10.4 mph - N/A   Clear
1:55 AM 32.0 °F 25.6 °F 30.9 °F 96% 30.05 in 10.0 mi SE 6.9 mph - N/A   Clear
2:55 AM 30.9 °F 24.3 °F 30.0 °F 96% 30.03 in 10.0 mi SE 6.9 mph - N/A   Clear
3:55 AM 28.9 °F 22.8 °F 28.9 °F 100% 30.03 in 9.0 mi SE 5.8 mph - N/A   Clear
4:55 AM 26.1 °F - 26.1 °F 100% 30.03 in 7.0 mi Calm Calm - N/A   Clear
5:55 AM 24.1 °F - 23.0 °F 96% 30.04 in 10.0 mi Calm Calm - N/A   Clear
6:55 AM 27.0 °F - 26.1 °F 96% 30.04 in 9.0 mi Calm Calm - N/A   Clear
7:55 AM 36.0 °F - 33.1 °F 89% 30.02 in 10.0 mi Calm Calm - N/A   Clear
8:55 AM 44.1 °F - 36.0 °F 73% 30.00 in 10.0 mi Calm Calm - N/A   Clear
9:55 AM 55.9 °F - 37.9 °F 51% 29.96 in 10.0 mi Variable 5.8 mph - N/A   Clear
10:55 AM 64.9 °F - 37.0 °F 36% 29.93 in 10.0 mi SE 11.5 mph - N/A   Clear
11:55 AM 69.1 °F - 26.1 °F 20% 29.91 in 10.0 mi SSE 9.2 mph - N/A   Clear
12:55 PM 72.0 °F - 25.0 °F 17% 29.88 in 10.0 mi SE 11.5 mph 18.4 mph N/A   Clear
1:55 PM 73.9 °F - 27.0 °F 18% 29.86 in 10.0 mi SSE 8.1 mph 18.4 mph N/A   Clear
2:55 PM 73.9 °F - 23.0 °F 15% 29.83 in 10.0 mi South 15.0 mph 25.3 mph N/A   Clear
3:55 PM 75.0 °F - 23.0 °F 14% 29.81 in 10.0 mi South 16.1 mph 25.3 mph N/A   Clear
4:55 PM 73.9 °F - 24.1 °F 16% 29.81 in 10.0 mi SSE 20.7 mph 29.9 mph N/A   Clear
5:55 PM 72.0 °F - 27.0 °F 19% 29.81 in 10.0 mi SSE 18.4 mph 29.9 mph N/A   Clear
6:55 PM 66.0 °F - 28.0 °F 24% 29.81 in 10.0 mi SSE 15.0 mph - N/A   Clear
7:55 PM 60.1 °F - 28.9 °F 31% 29.82 in 10.0 mi SE 9.2 mph - N/A   Clear
8:55 PM 55.0 °F - 28.9 °F 37% 29.82 in 10.0 mi SE 6.9 mph - N/A   Clear
9:55 PM 51.1 °F - 30.9 °F 46% 29.82 in 10.0 mi Calm Calm - N/A   Clear
10:55 PM 45.0 °F 41.2 °F 33.1 °F 63% 29.80 in 10.0 mi North 6.9 mph - N/A   Clear
11:55 PM 41.0 °F - 33.1 °F 73% 29.80 in 10.0 mi Calm Calm - N/A   Clear